This demonstration page uses our WeatherBlox Daily Observations layout. Learn more.

Hourly Observations for November 12, 2015

Temp ( °F °C ) Dew Point ( °F °C ) Humidity (%) Winds ( mph kmh ) Pressure ( in mb ) Visibility ( mi km ) Precip ( " mm )
12:15 am 00:15 Clear 34 1.3 31 -0.8 86 86 W 10 17 30 1016 10 16.0934 0 0
12:35 am 00:35 Clear 34 1 30 -0.9 87 87 W 13 20 30.03 1017 10 16.0934 0 0
12:55 am 00:55 Clear 34 1 30 -1.1 86 86 W 10 17 30.03 1017 10 16.0934 0 0
1:15 am 01:15 Clear 34 1 29 -1.4 84 84 W 13 20 30.03 1017 10 16.0934 0 0
1:35 am 01:35 Clear 33 0.8 29 -1.7 84 84 W 12 19 30.06 1018 10 16.0934 0 0
1:55 am 01:55 Clear 34 1.3 29 -1.7 81 81 W 13 20 30.06 1018 10 16.0934 0 0
2:15 am 02:15 Clear 34 1.2 28 -2 79 79 W 13 20 30.06 1018 10 16.0934 0 0
2:35 am 02:35 Clear 35 1.6 28 -2.2 76 76 WNW 12 19 30.06 1018 10 16.0934 0 0
2:55 am 02:55 Clear 34 1 28 -2.2 79 79 WNW 13 20 30.09 1019 10 16.0934 0 0
3:15 am 03:15 Clear 34 1.3 28 -2.5 76 76 NW 8 13 30.09 1019 10 16.0934 0 0
3:35 am 03:35 Clear 34 1.1 27 -2.7 76 76 WNW 8 13 30.09 1019 10 16.0934 0 0
3:55 am 03:55 Clear 33 0.5 27 -2.7 79 79 W 8 13 30.09 1019 10 16.0934 0 0
4:15 am 04:15 Clear 34 1 27 -3 75 75 WNW 12 19 30.09 1019 10 16.0934 0 0
4:35 am 04:35 Clear 34 1.2 26 -3.2 73 73 WNW 10 17 30.12 1020 10 16.0934 0 0
4:55 am 04:55 Clear 33 0.4 26 -3.1 78 78 W 10 17 30.12 1020 10 16.0934 0 0
5:15 am 05:15 Clear 33 0.3 26 -3.1 78 78 W 12 19 30.12 1020 10 16.0934 0 0
5:35 am 05:35 Clear 32 0.1 26 -3.4 78 78 WNW 10 17 30.18 1022 10 16.0934 0 0
5:55 am 05:55 Clear 32 0 26 -3.3 79 79 W 10 17 30.18 1022 10 16.0934 0 0
6:15 am 06:15 Clear 33 0.5 26 -3.3 76 76 W 10 17 30.18 1022 10 16.0934 0 0
6:35 am 06:35 Clear 32 0.2 26 -3.3 78 78 W 12 19 30.21 1023 10 16.0934 0 0
6:55 am 06:55 Clear 32 0.2 26 -3.4 77 77 W 12 19 30.21 1023 10 16.0934 0 0
7:15 am 07:15 Clear 33 0.6 26 -3.4 75 75 WNW 14 22 30.21 1023 10 16.0934 0 0
7:35 am 07:35 Sunny 34 1.2 26 -3.5 71 71 WNW 13 20 30.21 1023 10 16.0934 0 0
7:55 am 07:55 Sunny 36 2.1 26 -3.3 68 68 WNW 14 22 30.21 1023 10 16.0934 0 0
8:15 am 08:15 Sunny 37 3 26 -3.1 65 65 WNW 13 20 30.21 1023 10 16.0934 0 0
8:35 am 08:35 Sunny 38 3.1 27 -2.8 66 66 WNW 14 22 30.21 1023 10 16.0934 0 0
8:55 am 08:55 Sunny 39 3.7 27 -2.6 64 64 WNW 13 20 30.24 1024 10 16.0934 0 0
9:15 am 09:15 Sunny 40 4.5 29 -1.9 64 64 WNW 10 17 30.21 1023 10 16.0934 0 0
9:35 am 09:35 Sunny 41 5.2 29 -1.6 62 62 WNW 12 19 30.24 1024 10 16.0934 0 0
9:55 am 09:55 Sunny 43 6 29 -1.4 59 59 WNW 13 20 30.24 1024 10 16.0934 0 0
10:15 am 10:15 Sunny 44 6.6 30 -1.1 58 58 NW 13 20 30.24 1024 10 16.0934 0 0
10:35 am 10:35 Sunny 45 7.2 29 -1.6 54 54 NW 13 20 30.24 1024 10 16.0934 0 0
10:55 am 10:55 Sunny 46 7.6 28 -2.2 50 50 NW 14 22 30.21 1023 10 16.0934 0 0
11:15 am 11:15 Sunny 46 8 29 -1.7 51 51 NW 13 20 30.21 1023 10 16.0934 0 0
11:35 am 11:35 Sunny 47 8.5 29 -1.7 49 49 NW 15 24 30.21 1023 10 16.0934 0 0
11:55 am 11:55 Sunny 48 9 30 -1.1 50 50 NW 14 22 30.21 1023 10 16.0934 0 0
12:15 pm 12:15 Sunny 49 9.2 29 -1.8 46 46 NW 14 22 30.21 1023 10 16.0934 0 0
12:35 pm 12:35 Sunny 49 9.6 29 -1.8 45 45 WNW 10 17 30.21 1023 10 16.0934 0 0
12:55 pm 12:55 Sunny 51 10.4 28 -2.1 42 42 WNW 12 19 30.21 1023 10 16.0934 0 0
1:15 pm 13:15 Sunny 51 10.7 28 -2.2 41 41 WNW 12 19 30.18 1022 10 16.0934 0 0
1:35 pm 13:35 Sunny 52 11.2 27 -2.7 38 38 W 13 20 30.18 1022 10 16.0934 0 0
1:55 pm 13:55 Sunny 52 11.1 26 -3.2 37 37 WNW 13 20 30.18 1022 10 16.0934 0 0
2:15 pm 14:15 Sunny 52 11.1 25 -3.9 35 35 WNW 12 19 30.18 1022 10 16.0934 0 0
2:35 pm 14:35 Sunny 53 11.4 26 -3.2 36 36 NW 14 22 30.15 1021 10 16.0934 0 0
2:55 pm 14:55 Sunny 52 11.3 26 -3.5 36 36 WNW 9 15 30.15 1021 10 16.0934 0 0
3:15 pm 15:15 Sunny 53 11.7 26 -3.4 35 35 NNW 12 19 30.15 1021 10 16.0934 0 0
3:35 pm 15:35 Sunny 53 11.7 21 -6.1 28 28 NW 7 11 30.18 1022 10 16.0934 0 0
3:55 pm 15:55 Sunny 53 11.6 20 -6.5 28 28 NW 10 17 30.18 1022 10 16.0934 0 0
4:15 pm 16:15 Sunny 53 11.5 21 -6.1 29 29 NW 7 11 30.18 1022 10 16.0934 0 0
4:35 pm 16:35 Sunny 51 10.8 24 -4.4 34 34 NW 6 9 30.18 1022 10 16.0934 0 0
4:55 pm 16:55 Sunny 50 9.8 24 -4.6 36 36 Calm 30.21 1023 10 16.0934 0 0
5:15 pm 17:15 Sunny 46 8 25 -3.8 43 43 W 5 7 30.21 1023 10 16.0934 0 0
5:35 pm 17:35 Clear 45 7.3 25 -4 45 45 WNW 3 6 30.24 1024 10 16.0934 0 0
5:55 pm 17:55 Clear 45 7.1 25 -4 45 45 W 3 6 30.24 1024 10 16.0934 0 0
6:15 pm 18:15 Clear 43 6 26 -3.6 51 51 W 3 6 30.24 1024 10 16.0934 0 0
6:35 pm 18:35 Clear 43 5.9 26 -3.3 52 52 Calm 30.24 1024 10 16.0934 0 0
6:55 pm 18:55 Mostly Cloudy 41 5.2 28 -2.4 58 58 Calm 30.27 1025 10 16.0934 0 0
7:15 pm 19:15 Cloudy 41 5.1 28 -2.5 58 58 W 3 6 30.27 1025 10 16.0934 0 0
7:35 pm 19:35 Partly Cloudy 39 4.1 28 -2.3 63 63 W 3 6 30.3 1026 10 16.0934 0 0
7:55 pm 19:55 Clear 38 3.3 25 -3.8 60 60 W 5 7 30.3 1026 10 16.0934 0 0
8:15 pm 20:15 Clear 35 1.8 26 -3.6 68 68 W 3 6 30.3 1026 10 16.0934 0 0
8:35 pm 20:35 Clear 38 3.1 25 -4 60 60 W 6 9 30.3 1026 10 16.0934 0 0
8:55 pm 20:55 Clear 38 3.3 24 -4.5 57 57 W 7 11 30.3 1026 10 16.0934 0 0
9:15 pm 21:15 Clear 36 2.4 24 -4.6 60 60 WNW 5 7 30.33 1027 10 16.0934 0 0
9:35 pm 21:35 Clear 33 0.6 25 -4.1 71 71 WNW 5 7 30.36 1028 10 16.0934 0 0
9:55 pm 21:55 Clear 34 1 24 -4.5 67 67 W 3 6 30.36 1028 10 16.0934 0 0
10:15 pm 22:15 Clear 36 2.2 23 -5.1 59 59 W 6 9 30.3 1026 10 16.0934 0 0
10:35 pm 22:35 Clear 35 1.9 22 -5.5 58 58 W 6 9 30.3 1026 10 16.0934 0 0
10:55 pm 22:55 Clear 34 1 22 -5.7 61 61 W 7 11 30.36 1028 10 16.0934 0 0
11:15 pm 23:15 Partly Cloudy 37 2.7 21 -6.1 53 53 WNW 7 11 30.33 1027 10 16.0934 0 0
11:35 pm 23:35 Mostly Cloudy 33 0.5 22 -5.5 64 64 WNW 3 6 30.36 1028 10 16.0934 0 0
11:55 pm 23:55 Cloudy 33 0.4 23 -5 67 67 W 5 7 30.33 1027 10 16.0934 0 0

Powered by AerisWeather